EW0860 Weather Reports


time (UTC)temp
F
wind
direction
speed
knots
gust
knots
rain 1hr
in
rain 24hr
in
rain mn
in
humidity
%
barometer
mb
20260507210053 70 209 4.3 14.8 0.00 0.00 0.00 45 1008.3
20260507204550 70 147 4.3 12.2 0.00 0.00 0.00 48 1008.4
20260507203046 69 123 4.3 13.9 0.00 0.00 0.00 47 1008.9
20260507201549 69 143 4.3 14.8 0.00 0.00 0.00 48 1009.1
20260507200044 68 118 3.5 13.0 0.00 0.00 0.00 50 1009.4
20260507194539 68 234 3.5 19.1 0.00 0.00 0.00 52 1009.7
20260507193041 68 270 7.0 13.9 0.00 0.00 0.00 49 1010.0
20260507191535 67 213 6.1 16.5 0.00 0.00 0.00 49 1010.2
20260507190033 66 143 5.2 15.6 0.00 0.00 0.00 51 1010.2
20260507184533 66 200 5.2 13.0 0.00 0.00 0.00 53 1010.4
20260507183034 67 235 6.1 13.0 0.00 0.00 0.00 51 1010.5
20260507181525 65 283 0.9 11.3 0.00 0.00 0.00 54 1010.8
20260507180037 65 210 7.8 16.5 0.00 0.00 0.00 52 1011.1
20260507174524 65 216 6.1 13.0 0.00 0.00 0.00 51 1011.5
20260507173023 64 249 6.1 12.2 0.00 0.00 0.00 52 1011.9
20260507171514 63 241 3.5 13.9 0.00 0.00 0.00 54 1011.9
20260507170029 63 212 5.2 12.2 0.00 0.00 0.00 55 1012.1
20260507164508 62 265 3.5 14.8 0.00 0.00 0.00 57 1012.4
20260507163006 62 253 5.2 14.8 0.00 0.00 0.00 57 1012.8
20260507161506 62 316 5.2 12.2 0.00 0.00 0.00 56 1012.9
20260507160002 61 243 4.3 10.4 0.00 0.00 0.00 58 1013.0
20260507154602 60 260 4.3 14.8 0.00 0.00 0.00 60 1013.0
20260507153107 60 209 5.2 11.3 0.00 0.00 0.00 60 1013.0
20260507151555 59 284 1.7 11.3 0.00 0.00 0.00 62 1013.2
20260507150055 58 185 5.2 14.8 0.00 0.00 0.00 62 1013.4
20260507144550 58 224 4.3 9.6 0.00 0.00 0.00 65 1013.6
20260507143057 57 152 2.6 13.0 0.00 0.00 0.00 65 1013.6
20260507141547 56 195 3.5 9.6 0.00 0.00 0.00 67 1013.5
20260507140040 55 306 2.6 9.6 0.00 0.00 0.00 70 1013.8
20260507134536 54 281 3.5 10.4 0.00 0.00 0.00 72 1013.6
20260507133042 53 170 2.6 8.7 0.00 0.00 0.00 74 1013.6
20260507131537 51 175 2.6 7.8 0.00 0.00 0.00 76 1013.7
20260507130034 50 210 3.5 7.0 0.00 0.00 0.00 77 1013.9
20260507124528 49 207 2.6 7.8 0.00 0.00 0.00 78 1014.1
20260507123028 48 175 0.9 7.0 0.00 0.00 0.00 80 1014.0
20260507121527 47 212 2.6 6.1 0.00 0.00 0.00 81 1014.1
20260507120027 46 20 1.7 4.3 0.00 0.00 0.00 81 1014.0
20260507114524 46 210 2.6 6.1 0.00 0.00 0.00 81 1013.9
20260507113026 45 198 0.9 5.2 0.00 0.00 0.00 81 1013.9
20260507111522 46 220 0.9 4.3 0.00 0.00 0.00 80 1013.8
20260507110019 46 204 1.7 4.3 0.00 0.00 0.00 79 1013.7
20260507104517 46 276 1.7 4.3 0.00 0.00 0.00 78 1013.8
20260507103016 46 238 2.6 5.2 0.00 0.00 0.00 77 1013.8
20260507101517 46 139 0.0 4.3 0.00 0.00 0.00 76 1014.0
20260507100016 46 222 0.0 2.6 0.00 0.00 0.00 75 1014.1
20260507094510 46 193 1.7 4.3 0.00 0.00 0.00 74 1014.1
20260507093013 47 225 0.0 3.5 0.00 0.00 0.00 72 1014.1
20260507091504 48 179 0.0 6.1 0.00 0.00 0.00 71 1014.2
20260507090004 48 199 0.9 3.5 0.00 0.00 0.00 71 1014.3
20260507084503 48 226 1.7 6.1 0.00 0.00 0.00 70 1014.3
20260507083100 48 215 1.7 4.3 0.00 0.00 0.00 69 1014.4
20260507081600 48 214 1.7 6.1 0.00 0.00 0.00 69 1014.4
20260507080057 48 216 1.7 4.3 0.00 0.00 0.00 68 1014.4
20260507074603 48 216 0.9 4.3 0.00 0.00 0.00 66 1014.5
20260507073055 49 210 1.7 4.3 0.00 0.00 0.00 66 1014.5
20260507071604 49 218 0.9 5.2 0.00 0.00 0.00 65 1014.6
20260507064554 49 222 0.9 4.3 0.00 0.00 0.00 63 1014.9
20260507063048 50 216 0.9 4.3 0.00 0.00 0.00 62 1015.0
20260507061547 51 239 1.7 5.2 0.00 0.01 0.00 60 1015.1
20260507060045 51 246 1.7 7.0 0.00 0.01 0.00 59 1015.1
20260507054605 52 248 2.6 5.2 0.00 0.01 0.00 58 1015.2
20260507053041 50 283 0.9 3.5 0.00 0.01 0.00 65 1015.2
20260507051546 47 329 0.0 0.0 0.00 0.01 0.01 77 1015.1
20260507050046 46 336 0.0 0.0 0.00 0.01 0.01 79 1015.1
20260507044539 46 336 0.0 0.0 0.00 0.01 0.01 79 1015.2
20260507043036 46 336 0.0 0.0 0.00 0.01 0.01 78 1015.2
20260507041540 46 336 0.0 0.0 0.00 0.01 0.01 77 1015.2
20260507040040 46 336 0.0 0.0 0.00 0.01 0.01 75 1015.3
20260507034535 46 336 0.0 0.0 0.00 0.01 0.01 76 1015.4
20260507033036 45 336 0.0 0.0 0.00 0.01 0.01 74 1015.5
20260507031539 46 336 0.0 0.0 0.00 0.01 0.01 73 1015.3
20260507030033 46 336 0.0 0.0 0.00 0.01 0.01 73 1015.4
20260507024537 46 336 0.0 0.0 0.00 0.01 0.01 71 1015.2
20260507023033 47 336 0.0 0.0 0.00 0.01 0.01 70 1015.1
20260507021537 48 333 0.0 0.0 0.00 0.01 0.01 67 1015.0
20260507020031 49 335 0.0 0.0 0.00 0.01 0.01 64 1014.9
20260507014534 51 336 0.0 0.0 0.00 0.01 0.01 61 1014.7
20260507013036 53 336 0.0 0.0 0.00 0.01 0.01 56 1014.7
20260507011538 55 335 0.0 1.7 0.00 0.01 0.01 50 1014.7
20260507010040 58 333 0.0 1.7 0.00 0.01 0.01 42 1014.5
20260507004529 59 336 0.0 3.5 0.00 0.01 0.01 36 1014.6
20260507003029 60 354 1.7 4.3 0.00 0.01 0.01 35 1014.6
20260507001546 61 359 0.0 3.5 0.00 0.01 0.01 35 1014.6
20260507000032 61 359 1.7 6.1 0.00 0.01 0.01 34 1014.6
20260506234527 61 359 0.9 5.2 0.00 0.01 0.01 34 1014.8
20260506233029 61 31 2.6 6.1 0.00 0.01 0.01 35 1014.7
20260506231527 61 32 3.5 8.7 0.00 0.01 0.01 34 1014.7
20260506230029 61 36 0.9 6.1 0.00 0.01 0.01 36 1014.8
20260506224525 61 35 3.5 8.7 0.00 0.01 0.01 33 1014.8
20260506223025 62 35 2.6 7.8 0.00 0.01 0.01 33 1014.9
20260506221524 62 33 2.6 9.6 0.00 0.01 0.01 35 1014.9
20260506220023 61 359 2.6 7.8 0.00 0.01 0.01 35 1015.0
20260506214521 61 31 0.9 7.8 0.00 0.01 0.01 35 1015.0
20260506213021 61 28 3.5 7.8 0.00 0.01 0.01 34 1015.3
20260506211535 61 27 5.2 11.3 0.00 0.01 0.01 34 1015.5